• In Hungary
  • List of Countries
  • For 7 days
  • Water Temperature
  • Satellite Maps
  • Weather Map
  • News
  • Weather Widgets
  • user-avatar
    Login

    Hourly Weather Hutor

    Today, 23 June, Saturday

    Time Temperature Precipitation Wind Pressure Humidity
    00:00 +17°C° 0.2 mm 3 mps 712 mmHg 89%
    01:00 +18°C° 0 mm 1 mps 713 mmHg 92%
    02:00 +18°C° 1 mm 1 mps 713 mmHg 93%
    03:00 +16°C° 1 mm 2 mps 713 mmHg 94%
    04:00 +16°C° 1 mm 2 mps 713 mmHg 95%
    05:00 +16°C° 0.5 mm 2 mps 713 mmHg 94%
    06:00 +17°C° 0.5 mm 2 mps 713 mmHg 92%
    07:00 +17°C° 0 mm 3 mps 713 mmHg 91%
    08:00 +18°C° 0.1 mm 3 mps 713 mmHg 83%
    09:00 +20°C° 0.1 mm 4 mps 713 mmHg 75%
    10:00 +21°C° 0.1 mm 4 mps 713 mmHg 67%
    11:00 +23°C° 0.1 mm 4 mps 713 mmHg 59%
    12:00 +25°C° 0.1 mm 5 mps 712 mmHg 50%
    13:00 +25°C° 0 mm 5 mps 713 mmHg 46%
    14:00 +25°C° 0 mm 5 mps 712 mmHg 45%
    15:00 +25°C° 0 mm 5 mps 712 mmHg 44%
    16:00 +26°C° 0 mm 5 mps 712 mmHg 42%
    17:00 +23°C° 0 mm 4 mps 712 mmHg 47%
    18:00 +22°C° 0 mm 4 mps 712 mmHg 51%
    19:00 +21°C° 0 mm 3 mps 712 mmHg 55%
    20:00 +19°C° 0 mm 3 mps 711 mmHg 62%
    21:00 +17°C° 0 mm 2 mps 711 mmHg 70%
    22:00 +16°C° 0 mm 2 mps 711 mmHg 77%
    23:00 +15°C° 0 mm 2 mps 711 mmHg 79%

    Tomorrow, 24 June, Sunday

    Time Temperature Precipitation Wind Pressure Humidity
    00:00 +14°C° 0 mm 2 mps 711 mmHg 80%
    01:00 +14°C° 0 mm 2 mps 711 mmHg 82%
    02:00 +13°C° 0 mm 2 mps 711 mmHg 84%
    03:00 +13°C° 0 mm 2 mps 711 mmHg 86%
    04:00 +13°C° 0 mm 2 mps 710 mmHg 88%
    05:00 +15°C° 0 mm 2 mps 711 mmHg 79%
    06:00 +17°C° 0 mm 3 mps 711 mmHg 70%
    07:00 +19°C° 0 mm 3 mps 711 mmHg 61%
    08:00 +21°C° 0 mm 4 mps 711 mmHg 55%
    09:00 +22°C° 0 mm 5 mps 711 mmHg 50%
    10:00 +23°C° 0 mm 6 mps 711 mmHg 44%
    11:00 +23°C° 0.1 mm 6 mps 711 mmHg 46%
    12:00 +23°C° 0.1 mm 6 mps 711 mmHg 47%
    13:00 +23°C° 0.1 mm 6 mps 710 mmHg 48%
    14:00 +22°C° 0.3 mm 6 mps 710 mmHg 55%
    15:00 +20°C° 0.3 mm 6 mps 710 mmHg 63%
    16:00 +19°C° 0.3 mm 5 mps 710 mmHg 70%
    17:00 +17°C° 0.3 mm 5 mps 710 mmHg 75%
    18:00 +17°C° 0.3 mm 4 mps 710 mmHg 81%
    19:00 +16°C° 0.3 mm 3 mps 710 mmHg 86%
    20:00 +16°C° 0.1 mm 3 mps 710 mmHg 88%
    21:00 +14°C° 0.1 mm 3 mps 710 mmHg 90%
    22:00 +15°C° 0.1 mm 2 mps 710 mmHg 92%
    23:00 +15°C° 0 mm 2 mps 709 mmHg 93%

    Day after tomorrow, 25 June, Monday

    Time Temperature Precipitation Wind Pressure Humidity
    00:00 +14°C° 0 mm 2 mps 709 mmHg 94%
    01:00 +14°C° 0 mm 2 mps 709 mmHg 94%
    02:00 +14°C° 0 mm 2 mps 709 mmHg 94%
    03:00 +14°C° 0 mm 2 mps 709 mmHg 94%
    04:00 +14°C° 0 mm 1 mps 709 mmHg 94%
    05:00 +15°C° 0 mm 2 mps 709 mmHg 87%
    06:00 +17°C° 0 mm 2 mps 710 mmHg 81%
    07:00 +19°C° 0 mm 3 mps 710 mmHg 74%
    08:00 +19°C° 0.1 mm 3 mps 710 mmHg 71%
    09:00 +20°C° 0.1 mm 4 mps 710 mmHg 69%
    10:00 +21°C° 0.1 mm 4 mps 710 mmHg 66%
    11:00 +21°C° 0.2 mm 4 mps 710 mmHg 64%
    12:00 +22°C° 0.2 mm 5 mps 710 mmHg 62%
    13:00 +22°C° 0.2 mm 5 mps 711 mmHg 60%
    14:00 +22°C° 0.1 mm 5 mps 711 mmHg 58%
    15:00 +23°C° 0.1 mm 5 mps 711 mmHg 57%
    16:00 +23°C° 0.1 mm 5 mps 711 mmHg 55%
    17:00 +22°C° 0.1 mm 4 mps 711 mmHg 59%
    18:00 +21°C° 0.1 mm 4 mps 711 mmHg 62%
    19:00 +20°C° 0.1 mm 3 mps 712 mmHg 65%
    20:00 +18°C° 0 mm 3 mps 712 mmHg 73%
    21:00 +16°C° 0 mm 2 mps 712 mmHg 82%
    22:00 +15°C° 0 mm 2 mps 712 mmHg 90%
    23:00 +14°C° 0 mm 1 mps 712 mmHg 92%

    26 June, Tuesday

    Time Temperature Precipitation Wind Pressure Humidity
    00:00 +14°C° 0 mm 1 mps 712 mmHg 93%
    01:00 +14°C° 0 mm 1 mps 712 mmHg 95%
    02:00 +14°C° 0 mm 1 mps 713 mmHg 96%
    03:00 +13°C° 0 mm 1 mps 713 mmHg 96%
    04:00 +13°C° 0 mm 1 mps 713 mmHg 97%
    05:00 +15°C° 0 mm 1 mps 713 mmHg 89%
    06:00 +18°C° 0 mm 1 mps 714 mmHg 82%
    07:00 +19°C° 0 mm 2 mps 714 mmHg 74%
    08:00 +21°C° 0 mm 2 mps 714 mmHg 66%
    09:00 +24°C° 0 mm 3 mps 714 mmHg 57%
    10:00 +26°C° 0 mm 4 mps 714 mmHg 49%
    11:00 +27°C° 0.1 mm 4 mps 714 mmHg 45%
    12:00 +27°C° 0.1 mm 5 mps 714 mmHg 41%
    13:00 +28°C° 0.1 mm 5 mps 714 mmHg 37%
    14:00 +28°C° 0 mm 5 mps 714 mmHg 35%
    15:00 +29°C° 0 mm 5 mps 714 mmHg 33%
    16:00 +29°C° 0 mm 5 mps 714 mmHg 32%
    17:00 +27°C° 0 mm 4 mps 714 mmHg 38%
    18:00 +26°C° 0 mm 3 mps 714 mmHg 44%
    19:00 +25°C° 0 mm 2 mps 714 mmHg 50%
    20:00 +23°C° 0 mm 2 mps 714 mmHg 57%
    21:00 +20°C° 0 mm 2 mps 715 mmHg 65%
    22:00 +18°C° 0 mm 2 mps 715 mmHg 73%
    23:00 +18°C° 0 mm 1 mps 715 mmHg 75%

    27 June, Wednesday

    Time Temperature Precipitation Wind Pressure Humidity
    00:00 +18°C° 0 mm 1 mps 715 mmHg 77%
    01:00 +16°C° 0 mm 1 mps 715 mmHg 78%
    02:00 +16°C° 0 mm 1 mps 715 mmHg 79%
    03:00 +15°C° 0 mm 1 mps 715 mmHg 81%
    04:00 +15°C° 0 mm 1 mps 715 mmHg 82%
    05:00 +19°C° 0 mm 1 mps 715 mmHg 72%
    06:00 +21°C° 0 mm 1 mps 715 mmHg 63%
    07:00 +24°C° 0 mm 1 mps 715 mmHg 53%
    08:00 +26°C° 0 mm 2 mps 715 mmHg 47%
    09:00 +28°C° 0 mm 2 mps 715 mmHg 41%
    10:00 +29°C° 0 mm 3 mps 715 mmHg 35%
    11:00 +30°C° 0 mm 3 mps 715 mmHg 33%
    12:00 +31°C° 0 mm 3 mps 714 mmHg 31%
    13:00 +33°C° 0 mm 3 mps 714 mmHg 28%
    14:00 +33°C° 0 mm 3 mps 714 mmHg 28%
    15:00 +33°C° 0 mm 3 mps 713 mmHg 27%
    16:00 +33°C° 0 mm 3 mps 713 mmHg 26%
    17:00 +31°C° 0 mm 3 mps 713 mmHg 32%
    18:00 +29°C° 0 mm 2 mps 713 mmHg 37%
    19:00 +27°C° 0 mm 1 mps 712 mmHg 42%
    20:00 +25°C° 0 mm 1 mps 712 mmHg 47%
    21:00 +23°C° 0 mm 1 mps 712 mmHg 51%
    22:00 +21°C° 0 mm 1 mps 712 mmHg 56%
    23:00 +20°C° 0 mm 1 mps 712 mmHg 57%

    28 June, Thursday

    Time Temperature Precipitation Wind Pressure Humidity
    00:00 +20°C° 0 mm 1 mps 712 mmHg 58%
    01:00 +19°C° 0 mm 1 mps 711 mmHg 58%
    02:00 +19°C° 0 mm 1 mps 711 mmHg 59%
    03:00 +19°C° 0 mm 1 mps 711 mmHg 59%
    04:00 +19°C° 0 mm 1 mps 711 mmHg 60%
    05:00 +21°C° 0 mm 1 mps 711 mmHg 53%
    06:00 +24°C° 0 mm 1 mps 711 mmHg 46%
    07:00 +27°C° 0 mm 1 mps 711 mmHg 40%
    08:00 +29°C° 0 mm 1 mps 711 mmHg 36%
    09:00 +31°C° 0 mm 1 mps 711 mmHg 32%
    10:00 +34°C° 0 mm 2 mps 711 mmHg 28%
    11:00 +35°C° 0 mm 2 mps 710 mmHg 26%
    12:00 +36°C° 0 mm 2 mps 710 mmHg 24%
    13:00 +36°C° 0 mm 2 mps 709 mmHg 22%
    14:00 +36°C° 0 mm 2 mps 709 mmHg 22%
    15:00 +36°C° 0 mm 3 mps 709 mmHg 22%
    16:00 +35°C° 0 mm 3 mps 709 mmHg 23%
    17:00 +33°C° 0 mm 3 mps 709 mmHg 29%
    18:00 +30°C° 0 mm 2 mps 709 mmHg 35%
    19:00 +28°C° 0 mm 2 mps 709 mmHg 41%
    20:00 +27°C° 0 mm 2 mps 709 mmHg 44%
    21:00 +26°C° 0 mm 1 mps 709 mmHg 47%
    22:00 +24°C° 0 mm 1 mps 709 mmHg 49%
    23:00 +24°C° 0 mm 1 mps 709 mmHg 50%
    Show more